Location: Unspecified
(43.4354°N, 0.0000°E)
Time: 12:53:26
(UTC+00:00)

S-56A Canister/Altair - Pass Details

Date: 01 July 2019
Orbit: 632 x 2500 km, 38.9° (Epoch: 17 July)

Event Time Altitude Azimuth Distance (km) Brightness Sun altitude
Rises 16:49:15 0° 276° (W) 5,364 13.1 28.9°
Reaches altitude 10° 16:53:19 10° 272° (W) 4,078 13.0 28.2°
Maximum altitude 17:03:04 54° 200° (SSW) 1,528 9.5 26.4°
Drops below altitude 10° 17:09:31 10° 125° (SE) 2,728 9.9 25.3°
Sets 17:11:44 0° 120° (ESE) 3,493 10.4 24.9°
